Wind_Speed
63 64 65 66 64 62 61 61 60 60 61 62 62 61 61 61 61 62 62 62 63 64 65 66 66 66 67 68 69 70 71 73 73 75 75 76 77 78 78 79 80 81 82 82 83 83 83 83 83 83 82 82
65 65 66 68 68 65 64 63 63 62 61 61 62 62 61 61 62 63 64 65 66 67 67 67 67 67 67 68 68 69 69 70 71 72 73 75 76 77 77 78 79 80 81 82 82 83 83 83 83 83 83 83
67 66 67 69 71 69 67 67 67 67 66 66 65 66 66 65 65 65 67 68 69 70 70 70 70 69 69 69 69 69 69 69 70 71 72 73 74 75 76 77 77 78 79 80 80 82 82 83 84 84 84 84
67 68 67 69 71 72 72 71 70 71 71 71 71 71 71 71 71 71 71 71 71 72 73 72 72 72 72 71 71 71 70 70 70 70 70 71 72 73 74 75 76 77 77 78 79 79 80 81 82 83 84 84
66 69 70 71 71 73 74 74 74 74 74 74 74 75 75 75 76 76 76 76 75 76 76 75 75 75 75 74 74 74 73 73 72 71 71 71 71 72 72 73 74 75 76 77 78 78 78 79 80 81 82 83
66 69 71 73 74 74 74 75 75 76 77 77 77 77 78 79 80 80 80 79 79 79 79 79 79 79 78 78 77 77 77 77 76 75 74 73 73 73 73 73 74 74 75 75 76 77 78 78 79 79 80 80
68 69 71 73 75 76 77 77 77 76 77 78 78 79 80 82 83 83 83 82 82 82 81 81 82 81 81 81 81 80 80 80 80 79 78 77 76 76 76 76 76 76 76 76 76 77 77 78 79 79 79 79
71 70 70 72 74 76 78 79 79 79 79 78 78 78 79 81 83 84 85 85 84 84 83 82 82 82 82 81 81 80 80 80 80 80 80 80 79 78 78 79 79 79 79 79 78 78 78 79 79 80 80 80
75 74 73 73 74 76 77 78 79 79 80 80 80 79 79 80 81 82 83 83 84 84 83 82 81 81 80 80 79 79 79 79 79 80 80 80 80 79 79 79 80 80 81 82 82 82 82 81 81 81 82 82
79 78 77 77 77 78 78 79 79 79 80 80 80 80 80 81 81 81 81 82 83 83 83 83 83 82 81 81 80 80 79 79 79 80 80 80 80 80 80 80 80 80 81 82 83 84 85 85 85 85 84 84
81 81 80 80 81 82 82 82 82 82 81 81 82 82 82 83 83 82 82 82 83 83 84 85 85 85 84 83 82 82 81 81 81 81 81 82 82 82 82 82 82 82 82 82 83 84 85 86 86 87 87 87
84 84 84 84 84 85 85 85 85 85 84 84 85 85 85 86 86 86 85 85 85 85 85 86 86 86 86 85 85 84 83 83 83 83 83 84 84 84 84 84 84 84 84 84 84 84 85 85 86 87 87 88
86 87 87 88 88 88 88 87 87 86 86 86 87 87 87 88 88 88 88 88 88 87 87 87 87 87 87 87 86 86 86 86 86 86 87 87 87 87 87 86 86 86 86 86 86 86 86 87 87 87 87 88
88 89 89 90 91 91 90 90 89 89 88 88 88 88 88 88 89 89 90 90 89 89 89 89 89 89 89 89 89 89 89 89 89 89 90 90 90 91 91 91 90 90 90 90 90 90 90 90 90 90 90 90
91 91 91 92 92 92 92 93 92 92 91 91 91 91 90 90 91 91 91 91 91 91 91 91 91 92 92 92 92 92 92 92 92 92 92 92 93 93 93 93 94 94 94 95 95 95 95 94 94 94 94 94
93 94 94 94 94 94 94 94 94 94 94 94 94 94 93 93 94 93 93 93 93 93 93 93 93 94 94 94 94 94 94 95 95 95 95 95 95 95 96 96 96 96 97 97 97 98 98 98 97 97 96 96
93 95 96 96 96 96 95 95 95 95 96 96 96 96 96 96 96 96 96 96 96 96 96 96 96 97 96 96 97 97 97 98 98 98 99 99 99 98 98 98 98 98 98 98 98 98 98 98 98 97 97 97
93 95 97 98 98 98 98 97 97 97 97 97 97 98 98 99 99 99 100 100 100 100 100 100 100 99 99 99 100 101 101 102 102 102 102 101 101 100 100 99 98 97 97 97 97 97 97 97 96 96 96 96
91 94 96 98 99 99 99 99 100 100 100 100 101 101 101 101 102 102 103 103 104 103 103 103 103 103 102 102 103 103 104 104 104 104 103 103 102 100 99 97 97 96 97 97 97 97 97 97 97 97 98 98
89 91 94 96 99 100 100 100 100 101 102 102 103 104 105 105 105 105 106 106 106 106 107 107 106 106 105 105 104 104 104 104 104 103 103 103 102 101 99 99 99 99 100 101 101 101 100 100 100 101 101 101
89 90 91 93 95 98 100 102 103 104 104 104 104 105 106 106 107 107 107 108 108 108 108 109 108 108 108 108 107 107 106 106 105 105 104 104 103 103 103 103 104 105 105 105 105 104 104 104 104 104 104 104
92 92 92 92 93 95 97 100 103 106 107 108 108 108 108 108 108 109 109 109 110 110 111 111 111 111 111 112 112 111 111 110 110 109 108 107 107 107 108 109 110 111 111 110 109 108 107 108 108 107 107 107
94 94 94 95 95 96 96 98 100 102 105 107 108 109 110 111 112 112 112 112 113 113 114 115 115 116 116 116 116 115 115 115 115 114 112 112 111 112 113 114 115 115 115 113 112 111 111 111 110 110 110 110
98 98 98 98 99 99 100 100 101 101 101 103 104 106 108 110 111 112 113 114 115 116 117 118 118 118 118 118 118 119 119 118 118 116 114 114 114 115 117 117 118 117 116 115 114 114 113 113 112 112 112 113
100 101 101 102 102 102 103 103 103 103 103 103 104 105 106 107 108 110 111 113 114 116 117 118 118 118 118 119 119 119 119 118 117 116 115 114 115 117 118 118 118 118 117 116 115 115 114 114 114 114 114 114
98 100 103 104 105 106 106 106 106 106 107 107 108 108 108 109 110 111 112 113 114 114 115 115 115 115 116 116 116 116 116 116 115 115 114 115 116 117 117 117 117 117 116 116 115 115 114 114 115 115 115 116
95 98 101 103 104 106 107 108 109 109 110 111 111 112 112 113 114 115 115 115 115 115 114 114 114 114 115 115 115 115 115 115 115 115 115 116 116 116 117 117 117 116 116 116 115 115 115 115 115 116 116 117
89 92 95 97 100 102 104 106 108 110 111 112 114 115 116 117 118 118 118 118 117 117 116 116 117 117 117 117 118 118 118 118 118 118 118 118 118 118 118 118 118 118 118 117 118 117 117 118 118 118 119 120
85 87 88 91 93 95 98 101 104 106 109 111 114 115 117 118 119 119 119 119 119 119 120 120 120 121 121 121 121 121 121 121 121 121 121 121 121 121 121 121 121 121 121 121 122 121 121 121 122 122 123 123
84 85 86 87 88 90 92 95 97 100 103 106 109 112 113 115 116 117 118 119 119 120 121 121 122 122 123 123 123 123 123 123 123 123 123 124 124 124 124 124 124 125 125 126 125 125 124 125 125 125 126 127
84 85 85 86 87 88 89 91 92 95 98 100 102 105 106 108 110 111 113 114 116 117 118 119 120 121 121 122 122 122 123 123 123 124 124 124 124 125 125 125 125 126 127 127 127 126 126 126 126 127 127 128
Wind_Direction
227 225 224 224 225 227 227 229 232 237 239 239 241 243 245 247 247 247 246 246 247 248 248 248 248 248 248 248 248 249 249 249 249 249 249 249 249 249 249 249 249 249 249 249 250 250 251 251 252 252 253 253
228 228 228 226 225 227 229 229 230 233 235 237 239 241 243 245 246 245 244 245 248 249 250 250 249 249 249 249 249 249 249 249 250 250 250 250 250 250 250 251 251 250 250 250 250 250 251 251 251 252 253 253
228 230 231 228 226 226 229 230 231 232 233 233 234 236 237 239 242 243 244 245 247 249 250 250 249 249 249 250 250 250 250 250 251 251 251 252 252 252 252 252 252 252 252 252 252 251 251 251 252 252 252 253
229 231 231 230 228 228 229 231 232 233 234 234 234 235 236 237 240 242 244 244 246 247 248 249 249 249 250 251 251 251 252 252 252 252 252 252 253 253 253 253 253 253 253 253 253 253 253 252 252 253 253 253
232 231 232 231 230 230 230 232 233 234 236 237 237 237 238 239 240 242 244 245 246 247 248 248 249 250 251 252 252 253 254 254 253 253 253 253 254 254 254 254 254 254 254 254 254 254 254 254 254 254 254 254
234 234 234 233 232 232 232 233 235 236 237 238 239 240 240 241 242 243 245 246 247 248 248 249 250 251 252 253 254 254 255 255 255 254 254 254 254 254 254 254 254 254 255 255 255 255 255 255 255 255 255 255
233 236 237 237 236 235 234 235 235 236 237 239 240 241 242 242 243 244 245 247 248 249 249 250 252 253 254 254 255 255 256 255 255 254 254 254 254 254 254 253 253 254 254 254 255 255 255 255 255 255 255 256
231 233 236 239 239 239 238 237 237 237 238 239 240 242 243 244 245 245 246 247 248 249 250 251 252 253 254 255 255 255 255 255 255 254 254 254 254 254 254 254 253 253 254 254 254 255 255 255 255 255 255 255
234 233 233 235 238 239 240 240 239 239 240 240 241 242 244 245 246 246 247 247 248 249 249 250 251 252 253 254 254 254 255 255 255 255 254 254 254 254 254 254 254 254 254 254 254 255 255 255 255 255 255 256
238 237 235 235 236 238 239 239 240 240 241 241 242 243 244 246 246 247 248 248 249 249 250 250 251 252 252 253 254 254 254 254 254 255 255 255 255 256 256 256 256 256 256 256 255 255 256 256 256 256 256 256
240 240 239 238 238 238 239 239 240 241 241 242 243 244 245 246 247 248 249 250 251 251 251 252 252 253 254 254 254 254 254 254 255 255 255 255 256 256 256 257 257 257 257 257 257 256 256 257 257 257 258 258
241 240 240 240 240 240 240 241 241 242 242 243 244 245 245 246 247 248 249 250 251 252 252 253 254 255 255 256 256 256 256 256 256 255 255 255 255 256 256 256 256 257 257 257 257 257 257 257 257 257 258 258
242 241 241 242 242 242 242 243 243 243 244 244 245 245 246 247 248 249 250 250 251 252 252 253 254 255 255 256 256 257 257 257 257 257 257 256 256 256 256 256 256 256 256 256 257 257 257 257 258 258 258 259
243 243 243 243 243 244 244 244 245 245 245 245 246 246 246 247 248 249 250 251 251 252 252 252 253 253 254 255 256 256 257 257 257 257 257 257 257 257 257 257 257 257 258 258 258 258 258 258 259 259 259 260
244 244 244 245 245 245 245 245 246 246 246 247 247 247 247 248 249 250 251 251 252 252 252 252 253 253 254 254 255 256 257 257 257 257 257 258 258 258 259 259 259 259 260 260 260 260 259 259 260 260 260 260
244 245 245 246 247 247 247 247 247 247 247 248 248 248 249 249 250 251 251 252 252 252 253 253 254 254 255 255 256 257 257 258 258 258 258 258 259 259 260 260 261 261 261 261 261 261 261 261 261 261 261 261
244 244 245 246 247 248 248 249 249 249 249 249 249 250 250 251 251 252 252 252 253 253 253 254 255 255 256 256 257 257 257 258 258 258 258 259 259 260 260 261 261 262 262 262 262 262 262 262 262 262 262 262
246 245 245 245 246 247 248 249 249 250 250 250 251 251 251 251 252 252 253 253 253 254 254 255 255 255 256 256 256 257 257 257 257 258 258 259 259 260 260 261 261 261 262 262 262 261 261 261 261 261 262 262
247 247 246 246 246 247 248 249 250 250 251 251 251 251 251 252 252 252 252 253 253 254 254 255 255 255 255 256 256 256 256 256 257 257 257 258 258 258 258 259 260 260 261 261 261 261 261 261 261 261 261 261
248 248 248 248 248 248 249 249 250 251 251 252 252 252 252 253 253 253 253 253 253 254 254 254 255 255 255 255 256 256 256 255 256 256 256 257 257 257 257 258 259 260 261 261 261 261 261 261 261 261 261 261
249 248 249 249 250 250 250 250 250 251 251 252 252 253 253 254 254 254 254 254 254 255 255 255 255 255 256 256 256 256 256 256 256 256 257 257 257 258 259 260 261 261 262 262 261 261 262 262 262 262 261 261
250 250 250 250 250 250 250 250 250 250 251 251 252 252 253 254 254 255 255 255 256 256 256 256 256 256 256 257 257 257 257 257 258 258 259 259 260 260 261 262 262 263 263 263 263 263 262 262 262 262 262 262
250 251 251 251 251 251 251 251 250 251 251 251 252 252 253 253 254 254 255 255 255 256 256 256 257 257 257 258 258 258 259 260 260 261 261 262 262 262 262 263 263 263 263 263 263 263 263 263 263 263 263 262
249 250 250 251 251 252 252 252 252 252 252 252 252 253 253 253 254 254 254 255 255 255 255 256 256 257 258 258 259 259 260 261 261 262 262 262 262 262 262 262 262 262 263 263 263 263 263 263 263 263 263 262
249 249 250 250 251 251 252 252 253 253 254 254 254 254 254 254 254 254 254 254 254 254 254 255 256 257 258 258 259 259 260 260 261 261 261 261 260 260 260 261 261 261 262 262 262 262 262 262 262 262 262 262
250 250 250 250 250 251 251 252 253 253 254 254 254 254 254 254 254 254 254 254 254 254 255 255 256 257 257 258 258 259 259 259 259 259 259 259 259 259 260 260 261 261 261 262 262 262 262 262 262 262 262 262
251 250 250 250 251 251 251 252 253 253 253 254 254 254 255 255 255 255 255 255 256 256 256 257 257 257 258 258 258 258 258 258 259 259 259 259 259 260 260 261 261 261 261 262 262 262 262 262 262 263 263 263
253 252 252 252 251 252 252 252 252 253 253 254 254 254 254 255 255 256 256 257 257 257 258 258 258 258 258 258 258 258 258 259 259 259 259 259 260 260 260 261 261 261 261 262 262 262 262 262 262 262 262 263
255 255 254 254 253 253 253 253 253 253 253 253 254 254 254 255 255 256 256 257 257 257 257 258 258 258 258 258 258 259 259 259 259 259 260 259 259 260 260 260 260 261 261 261 261 261 261 261 262 262 262 263
256 256 255 255 255 255 254 254 254 255 254 254 254 255 255 255 255 256 256 256 257 257 257 257 257 258 258 258 259 259 259 259 259 260 260 260 260 260 260 260 260 261 261 261 261 261 261 262 262 262 263 263
256 256 256 256 256 256 256 256 256 256 256 256 256 256 256 256 256 256 256 257 257 257 257 257 258 258 258 259 259 259 259 259 260 260 260 260 260 260 260 261 261 261 261 262 262 262 262 262 263 263 263 263
Height
10689 10691 10694 10695 10697 10699 10701 10703 10705 10705 10706 10707 10709 10710 10712 10713 10714 10714 10715 10717 10718 10719 10720 10722 10724 10725 10727 10728 10730 10731 10733 10735 10736 10738 10739 10740 10742 10743 10745 10747 10749 10750 10752 10754 10756 10758 10760 10761 10763 10764 10766 10767
10683 10686 10688 10689 10691 10693 10695 10696 10698 10699 10701 10702 10704 10705 10707 10708 10708 10709 10710 10711 10712 10713 10714 10715 10717 10719 10720 10721 10723 10724 10726 10728 10729 10731 10732 10734 10735 10737 10738 10740 10741 10743 10744 10747 10748 10750 10752 10754 10755 10757 10758 10760
10677 10680 10681 10683 10685 10687 10689 10690 10692 10692 10693 10695 10697 10698 10699 10700 10701 10702 10703 10704 10706 10706 10707 10709 10710 10712 10713 10714 10716 10717 10719 10721 10723 10724 10726 10727 10728 10730 10731 10733 10734 10735 10737 10739 10741 10742 10744 10746 10748 10749 10751 10753
10672 10673 10674 10676 10679 10681 10682 10683 10685 10685 10686 10688 10689 10690 10691 10693 10693 10694 10695 10697 10698 10699 10700 10702 10703 10704 10706 10708 10709 10711 10713 10714 10716 10718 10719 10721 10722 10723 10724 10726 10727 10728 10729 10731 10733 10734 10736 10738 10740 10741 10743 10745
10665 10667 10668 10669 10671 10673 10675 10676 10678 10678 10680 10682 10683 10684 10685 10686 10686 10687 10688 10690 10691 10692 10694 10695 10695 10697 10699 10701 10703 10704 10706 10708 10709 10711 10713 10714 10715 10716 10717 10718 10720 10721 10722 10723 10725 10726 10728 10730 10732 10733 10735 10737
10659 10660 10661 10662 10664 10666 10668 10669 10670 10672 10674 10675 10676 10677 10678 10679 10680 10681 10681 10683 10684 10685 10687 10688 10689 10690 10691 10694 10696 10697 10699 10700 10702 10704 10705 10706 10707 10709 10710 10711 10712 10713 10714 10716 10717 10718 10720 10722 10723 10725 10727 10729
10651 10652 10653 10655 10657 10659 10660 10662 10663 10665 10667 10668 10669 10670 10671 10672 10673 10673 10674 10676 10677 10678 10680 10681 10682 10683 10684 10686 10688 10690 10691 10693 10694 10696 10697 10698 10699 10701 10702 10703 10705 10706 10707 10708 10709 10711 10712 10713 10715 10717 10718 10720
10642 10644 10647 10648 10650 10651 10652 10654 10656 10658 10659 10661 10662 10663 10664 10664 10665 10666 10667 10668 10669 10671 10672 10674 10675 10676 10677 10678 10680 10682 10683 10684 10686 10687 10689 10690 10691 10693 10694 10695 10697 10698 10699 10701 10702 10703 10704 10705 10706 10708 10710 10712
10635 10637 10639 10641 10641 10643 10644 10646 10649 10651 10652 10654 10655 10657 10657 10657 10658 10659 10660 10661 10662 10663 10665 10666 10668 10669 10670 10671 10673 10674 10676 10677 10678 10679 10681 10682 10683 10685 10686 10687 10689 10690 10691 10693 10694 10695 10696 10697 10698 10700 10701 10703
10628 10630 10632 10634 10635 10636 10637 10638 10641 10643 10645 10647 10649 10650 10650 10650 10650 10651 10652 10653 10654 10655 10657 10658 10660 10661 10662 10663 10665 10666 10668 10669 10670 10671 10673 10674 10675 10677 10678 10679 10680 10682 10683 10684 10685 10686 10687 10689 10690 10691 10692 10694
10622 10624 10626 10627 10628 10628 10628 10630 10633 10635 10637 10639 10641 10642 10642 10642 10642 10643 10644 10646 10647 10647 10648 10650 10651 10652 10653 10655 10656 10658 10659 10661 10662 10663 10664 10665 10667 10668 10669 10670 10672 10673 10674 10675 10676 10677 10679 10680 10681 10682 10683 10685
10615 10616 10617 10618 10619 10620 10621 10623 10625 10627 10629 10631 10632 10633 10633 10634 10635 10636 10637 10638 10639 10639 10640 10641 10643 10643 10644 10645 10647 10648 10650 10651 10653 10654 10655 10656 10658 10659 10660 10661 10663 10664 10665 10666 10667 10668 10669 10670 10672 10673 10674 10675
10606 10607 10608 10609 10610 10611 10613 10615 10617 10619 10621 10622 10623 10624 10625 10626 10627 10628 10628 10629 10630 10631 10632 10633 10634 10635 10635 10636 10637 10639 10640 10641 10643 10644 10645 10646 10648 10649 10650 10652 10653 10654 10655 10656 10657 10659 10660 10661 10662 10663 10665 10666
10596 10597 10599 10599 10600 10602 10604 10607 10609 10611 10612 10613 10614 10616 10617 10617 10618 10618 10619 10620 10621 10622 10623 10624 10625 10626 10626 10627 10628 10629 10630 10632 10633 10634 10635 10636 10637 10639 10640 10642 10643 10644 10645 10647 10648 10649 10650 10651 10653 10654 10655 10656
10586 10588 10589 10590 10591 10593 10595 10597 10599 10602 10603 10603 10605 10606 10608 10608 10608 10609 10610 10610 10612 10613 10614 10615 10616 10616 10617 10618 10619 10620 10621 10622 10623 10624 10625 10626 10627 10629 10630 10631 10633 10634 10635 10636 10637 10638 10640 10641 10643 10644 10645 10646
10577 10579 10580 10580 10581 10582 10584 10586 10589 10591 10592 10593 10594 10596 10598 10598 10598 10599 10600 10601 10602 10603 10604 10605 10605 10606 10607 10608 10609 10610 10611 10611 10612 10613 10614 10616 10617 10619 10620 10621 10622 10623 10624 10626 10627 10628 10629 10630 10632 10633 10635 10636
10568 10569 10570 10570 10571 10572 10573 10576 10578 10580 10581 10582 10584 10586 10587 10587 10588 10589 10590 10590 10591 10592 10593 10594 10595 10595 10597 10598 10599 10599 10600 10601 10602 10603 10604 10605 10607 10608 10609 10611 10612 10613 10614 10614 10615 10616 10618 10619 10621 10622 10624 10625
10556 10557 10558 10559 10560 10562 10564 10565 10567 10569 10571 10572 10573 10574 10575 10576 10577 10578 10578 10579 10579 10580 10581 10582 10584 10585 10586 10587 10588 10588 10589 10590 10591 10592 10593 10595 10596 10598 10599 10600 10601 10602 10602 10603 10604 10605 10607 10608 10610 10611 10613 10614
10544 10545 10547 10549 10551 10553 10554 10555 10557 10558 10560 10560 10561 10562 10563 10564 10565 10566 10567 10568 10569 10570 10571 10571 10573 10574 10575 10575 10575 10576 10577 10578 10579 10581 10582 10584 10585 10587 10588 10589 10590 10591 10591 10592 10593 10594 10595 10597 10598 10600 10601 10602
10534 10535 10537 10539 10541 10543 10545 10546 10547 10547 10547 10548 10549 10550 10551 10552 10553 10554 10556 10557 10558 10559 10560 10560 10561 10563 10564 10563 10563 10563 10564 10565 10567 10569 10571 10572 10574 10576 10577 10579 10579 10579 10579 10579 10580 10582 10584 10585 10586 10587 10589 10590
10524 10525 10527 10530 10532 10533 10535 10536 10535 10535 10535 10536 10537 10538 10539 10540 10542 10543 10544 10546 10547 10547 10548 10548 10549 10550 10551 10550 10549 10550 10551 10553 10555 10557 10559 10561 10564 10566 10567 10567 10567 10566 10566 10567 10568 10571 10573 10574 10574 10575 10576 10578
10513 10515 10518 10520 10521 10521 10522 10522 10521 10521 10523 10524 10525 10527 10528 10529 10530 10531 10532 10533 10534 10534 10534 10534 10535 10535 10536 10536 10537 10537 10539 10541 10543 10545 10548 10552 10554 10555 10555 10554 10553 10552 10553 10555 10557 10560 10561 10561 10562 10563 10564 10566
10503 10505 10506 10507 10507 10508 10509 10508 10507 10509 10511 10512 10514 10516 10516 10516 10516 10517 10519 10520 10520 10520 10520 10519 10519 10520 10522 10524 10525 10526 10527 10529 10531 10535 10539 10542 10543 10542 10541 10539 10538 10538 10540 10543 10546 10547 10547 10548 10550 10551 10552 10552
10492 10493 10493 10494 10494 10495 10495 10494 10495 10498 10499 10501 10502 10502 10502 10502 10503 10504 10505 10506 10505 10505 10504 10504 10505 10507 10510 10512 10513 10514 10515 10517 10520 10525 10528 10529 10528 10526 10524 10523 10523 10525 10527 10530 10532 10533 10534 10536 10537 10538 10537 10537
10480 10481 10482 10482 10482 10482 10482 10483 10484 10486 10487 10488 10488 10488 10489 10489 10488 10489 10489 10488 10488 10488 10489 10490 10493 10496 10498 10500 10501 10502 10503 10506 10508 10512 10514 10513 10511 10509 10508 10508 10510 10512 10515 10517 10518 10520 10522 10523 10523 10523 10523 10522
10469 10469 10468 10468 10470 10470 10471 10473 10473 10474 10474 10473 10473 10474 10475 10473 10472 10472 10472 10471 10472 10474 10477 10480 10483 10484 10486 10487 10488 10489 10491 10492 10494 10496 10497 10496 10494 10493 10494 10495 10497 10499 10501 10503 10504 10506 10508 10508 10508 10509 10508 10507
10454 10454 10454 10456 10458 10459 10460 10461 10461 10461 10460 10460 10461 10461 10459 10458 10457 10457 10458 10459 10461 10465 10468 10470 10471 10472 10472 10474 10474 10475 10476 10477 10478 10479 10480 10480 10480 10481 10482 10483 10484 10485 10487 10489 10490 10492 10494 10493 10493 10495 10493 10491
10439 10440 10442 10445 10446 10447 10448 10449 10448 10447 10448 10447 10445 10444 10443 10443 10443 10444 10446 10448 10451 10454 10456 10456 10457 10457 10457 10458 10459 10460 10460 10462 10463 10464 10466 10467 10468 10469 10468 10468 10469 10471 10473 10475 10475 10477 10479 10478 10479 10481 10478 10477
10426 10428 10430 10432 10433 10434 10434 10434 10433 10433 10433 10431 10429 10429 10429 10429 10431 10433 10435 10437 10438 10440 10440 10441 10441 10441 10442 10443 10444 10446 10447 10448 10449 10450 10452 10452 10453 10454 10454 10454 10456 10457 10459 10459 10459 10462 10465 10465 10465 10466 10463 10464
10413 10415 10417 10418 10420 10420 10420 10421 10421 10420 10418 10416 10416 10415 10416 10417 10419 10420 10421 10422 10423 10424 10425 10426 10426 10426 10427 10428 10430 10432 10433 10434 10434 10435 10435 10436 10438 10439 10439 10441 10442 10442 10441 10442 10444 10448 10451 10450 10451 10451 10449 10450
10401 10403 10405 10405 10406 10407 10408 10409 10408 10405 10403 10403 10403 10403 10403 10404 10405 10406 10406 10407 10407 10408 10409 10410 10411 10412 10412 10413 10415 10416 10418 10419 10418 10418 10419 10421 10423 10423 10423 10425 10427 10425 10424 10428 10431 10432 10434 10435 10436 10435 10434 10434